Content
SEND FEEDBACK

Daily
Averages
Monthly
Summary
Mauritania

NOUADHIBOU, MAURITANIA


Home > Africa > Mauritania
Elevation: 10 feet     Latitude: 20 56N     Longitude: 017 02W

WEATHER
 
SELECT A DAY
Number of Records: 118,237;   Date Range: 7/1/96 - 9/22/14
 
SHARE

PRINT THIS DATA

[ ← Previous Day ]
WEATHER ALMANAC - FEBRUARY 28, 2013
[ Next Day → ]
[ °C ]   °F
Weather ElementAverageHighLow
Temperature65.4 °F71.6 °F (2:00 pm)60.8 °F (6:00 am)
Dewpoint60.2 °F62 °F (3:00 am)57.2 °F (1:00 pm)
Humidity83.3 %100 % (3:00 am)62 % (3:00 pm)
Barometer29.99 in30.06 in (12:00 pm)29.92 in (5:00 pm)
Wind Speed11.1 mph16.1 mph (6:00 pm)
Weather ElementAverage
Visibility5 mi
Wind DirectionWNW (287.4 °)

Weather ElementTotal
Precipitation---
Cooling Degree Days1.2 (Base 65)
Growing Degree Days16.2 (Base 50)
Averaged from 31 records on February 28, 2013
WEATHER CONDITIONS BREAKOUT
WIND DIRECTION BREAKOUT
WEATHER BY HOUR - FEBRUARY 28, 2013
[ °C ]   °F
Local TimeTemperatureDewpointHumidityBarometerVisibilityWind DirectionWind SpeedGust SpeedPrecipitationEventsConditions
12:00 AM64.4 °F60.8 °F88 %30.01 in5.0 miNW (320°)9.2 mph
1:00 AM62.6 °F60.8 °F94 %30.01 in5.0 miNNW (330°)6.9 mph
2:00 AM62.6 °F60.8 °F94 %29.98 in5.0 miNW (320°)6.9 mph
3:00 AM62.0 °F62.0 °F100 %29.99 in5.0 miNNW (330°)8.1 mph
3:00 AM62.6 °F60.8 °F94 %29.98 in5.0 miNNW (330°)8.1 mph
4:00 AM62.6 °F59.0 °F88 %29.98 in5.0 miNNW (340°)8.1 mphPartly Cloudy
5:00 AM62.6 °F59.0 °F88 %29.98 in5.0 miNNW (330°)8.1 mphPartly Cloudy
6:00 AM60.8 °F59.0 °F94 %29.98 in5.0 miNNW (330°)6.9 mphPartly Cloudy
6:00 AM61.0 °F61.0 °F100 %30.01 in5.0 miNNW (330°)6.9 mphPartly Cloudy
7:00 AM60.8 °F59.0 °F94 %30.01 in5.0 miNNW (340°)8.1 mphScattered Clouds
8:00 AM60.8 °F59.0 °F94 %30.01 in5.0 miNorth (350°)6.9 mphScattered Clouds
9:00 AM63.0 °F62.0 °F96 %30.05 in5.0 miNorth (350°)8.1 mphPartly Cloudy
9:00 AM64.4 °F59.0 °F83 %30.04 in5.0 miNorth (360°)6.9 mphScattered Clouds
10:00 AM66.2 °F59.0 °F78 %30.04 in5.0 miNorth (360°)13.8 mphScattered Clouds
11:00 AM66.2 °F60.8 °F83 %30.04 in5.0 miNNE (20°)12.7 mphScattered Clouds
12:00 PM68.0 °F59.0 °F73 %30.04 in5.0 miNNE (20°)13.8 mphPartly Cloudy
12:00 PM69.0 °F61.0 °F69 %30.06 in5.0 miNNE (30°)13.8 mphScattered Clouds
1:00 PM69.8 °F57.2 °F64 %30.01 in5.0 miNNE (30°)13.8 mphPartly Cloudy
2:00 PM71.6 °F59.0 °F64 %29.98 in5.0 miNW (310°)12.7 mphPartly Cloudy
3:00 PM71.0 °F61.0 °F62 %29.98 in5.0 miNW (310°)13.8 mphScattered Clouds
3:00 PM69.8 °F59.0 °F68 %29.95 in5.0 miNW (310°)13.8 mph
4:00 PM69.8 °F59.0 °F68 %29.95 in5.0 miWNW (300°)13.8 mph
5:00 PM69.8 °F60.8 °F73 %29.92 in5.0 miWNW (300°)13.8 mph
6:00 PM68.0 °F60.8 °F78 %29.95 in5.0 miWNW (300°)16.1 mph
6:00 PM68.0 °F62.0 °F74 %29.96 in5.0 miWNW (300°)16.1 mphPartly Cloudy
7:00 PM66.2 °F60.8 °F83 %29.92 in5.0 miNW (320°)16.1 mph
8:00 PM64.4 °F60.8 °F88 %29.95 in5.0 miNW (320°)12.7 mph
9:00 PM65.0 °F62.0 °F86 %29.98 in5.0 miNNW (330°)11.5 mphClear
9:00 PM64.4 °F60.8 °F88 %29.95 in5.0 miNNW (330°)11.5 mph
10:00 PM64.4 °F60.8 °F88 %29.98 in5.0 miNNW (330°)11.5 mph
11:00 PM64.4 °F60.8 °F88 %30.01 in5.0 miNNW (330°)12.7 mph
Hourly data recorded from GQPP, located miles away from Nouadhibou, Mauritania







STORIES FROM OUR PARTNERS